Meteo orario Giumri

Oggi, 29 Settembre, Martedi

Tempo Temperatura Precipitazioni Vento Pressione Umidità
00:00 +12°C° 0 mm 3 m/s 639 mm Hg 82%
01:00 +12°C° 0 mm 2 m/s 639 mm Hg 83%
02:00 +12°C° 0 mm 2 m/s 638 mm Hg 83%
03:00 +12°C° 0 mm 2 m/s 638 mm Hg 84%
04:00 +10°C° 0 mm 2 m/s 638 mm Hg 84%
05:00 +10°C° 0 mm 2 m/s 638 mm Hg 85%
06:00 +10°C° 0 mm 2 m/s 638 mm Hg 85%
07:00 +12°C° 0 mm 2 m/s 638 mm Hg 79%
08:00 +13°C° 0 mm 2 m/s 638 mm Hg 72%
09:00 +15°C° 0 mm 2 m/s 639 mm Hg 65%
10:00 +16°C° 0 mm 2 m/s 639 mm Hg 62%
11:00 +17°C° 0 mm 2 m/s 639 mm Hg 58%
12:00 +19°C° 0 mm 2 m/s 639 mm Hg 54%
13:00 +19°C° 0 mm 2 m/s 639 mm Hg 53%
14:00 +19°C° 0 mm 2 m/s 638 mm Hg 52%
15:00 +20°C° 0 mm 3 m/s 638 mm Hg 51%
16:00 +18°C° 0 mm 3 m/s 637 mm Hg 58%
17:00 +16°C° 0 mm 3 m/s 637 mm Hg 64%
18:00 +14°C° 0 mm 3 m/s 636 mm Hg 71%
19:00 +13°C° 0 mm 3 m/s 636 mm Hg 73%
20:00 +12°C° 0 mm 3 m/s 636 mm Hg 76%
21:00 +12°C° 0 mm 2 m/s 635 mm Hg 78%
22:00 +12°C° 0 mm 2 m/s 635 mm Hg 79%
23:00 +10°C° 0 mm 2 m/s 635 mm Hg 80%

Domani, 30 Settembre, Mercoledi

Tempo Temperatura Precipitazioni Vento Pressione Umidità
00:00 +10°C° 0 mm 2 m/s 635 mm Hg 81%
01:00 +10°C° 0 mm 2 m/s 634 mm Hg 82%
02:00 +9°C° 0 mm 2 m/s 634 mm Hg 83%
03:00 +9°C° 0 mm 2 m/s 634 mm Hg 84%
04:00 +10°C° 0 mm 1 m/s 633 mm Hg 85%
05:00 +10°C° 0 mm 1 m/s 633 mm Hg 85%
06:00 +9°C° 0 mm 1 m/s 633 mm Hg 86%
07:00 +11°C° 0 mm 1 m/s 633 mm Hg 79%
08:00 +13°C° 0 mm 1 m/s 633 mm Hg 71%
09:00 +15°C° 0 mm 1 m/s 634 mm Hg 64%
10:00 +16°C° 0 mm 2 m/s 634 mm Hg 58%
11:00 +17°C° 0 mm 2 m/s 634 mm Hg 53%
12:00 +19°C° 0 mm 2 m/s 634 mm Hg 48%
13:00 +19°C° 0 mm 2 m/s 634 mm Hg 46%
14:00 +19°C° 0 mm 2 m/s 634 mm Hg 44%
15:00 +20°C° 0 mm 2 m/s 634 mm Hg 42%
16:00 +18°C° 0 mm 2 m/s 633 mm Hg 49%
17:00 +17°C° 0 mm 2 m/s 633 mm Hg 57%
18:00 +15°C° 0 mm 2 m/s 633 mm Hg 64%
19:00 +14°C° 0 mm 2 m/s 633 mm Hg 68%
20:00 +13°C° 0 mm 2 m/s 633 mm Hg 72%
21:00 +13°C° 0 mm 2 m/s 633 mm Hg 76%
22:00 +12°C° 0.1 mm 2 m/s 633 mm Hg 77%
23:00 +12°C° 0.1 mm 2 m/s 633 mm Hg 79%

Dopodomani, 1 Ottobre, Giovedi

Tempo Temperatura Precipitazioni Vento Pressione Umidità
00:00 +10°C° 0.1 mm 2 m/s 633 mm Hg 81%
01:00 +10°C° 0 mm 2 m/s 633 mm Hg 82%
02:00 +10°C° 0 mm 2 m/s 632 mm Hg 83%
03:00 +10°C° 0 mm 2 m/s 632 mm Hg 84%
04:00 +10°C° 0.1 mm 2 m/s 632 mm Hg 85%
05:00 +9°C° 0.1 mm 2 m/s 632 mm Hg 85%
06:00 +10°C° 0.1 mm 1 m/s 633 mm Hg 86%
07:00 +12°C° 0 mm 2 m/s 633 mm Hg 79%
08:00 +13°C° 0 mm 2 m/s 633 mm Hg 72%
09:00 +15°C° 0 mm 2 m/s 634 mm Hg 65%
10:00 +16°C° 0 mm 2 m/s 634 mm Hg 60%
11:00 +18°C° 0 mm 2 m/s 634 mm Hg 55%
12:00 +19°C° 0 mm 3 m/s 635 mm Hg 50%
13:00 +19°C° 0 mm 3 m/s 634 mm Hg 50%
14:00 +20°C° 0 mm 3 m/s 634 mm Hg 50%
15:00 +20°C° 0 mm 4 m/s 634 mm Hg 50%
16:00 +18°C° 0 mm 4 m/s 633 mm Hg 58%
17:00 +15°C° 0 mm 4 m/s 633 mm Hg 65%
18:00 +13°C° 0 mm 4 m/s 633 mm Hg 73%
19:00 +13°C° 0 mm 3 m/s 633 mm Hg 74%
20:00 +12°C° 0 mm 3 m/s 633 mm Hg 75%
21:00 +12°C° 0 mm 3 m/s 634 mm Hg 76%
22:00 +12°C° 0 mm 3 m/s 633 mm Hg 77%
23:00 +12°C° 0 mm 2 m/s 633 mm Hg 77%

2 Ottobre, Venerdi

Tempo Temperatura Precipitazioni Vento Pressione Umidità
00:00 +12°C° 0 mm 2 m/s 633 mm Hg 78%
01:00 +12°C° 0 mm 2 m/s 633 mm Hg 78%
02:00 +10°C° 0 mm 2 m/s 633 mm Hg 77%
03:00 +11°C° 0 mm 1 m/s 633 mm Hg 77%
04:00 +11°C° 0 mm 1 m/s 633 mm Hg 76%
05:00 +11°C° 0 mm 1 m/s 633 mm Hg 76%
06:00 +11°C° 0 mm 1 m/s 634 mm Hg 75%
07:00 +13°C° 0 mm 2 m/s 634 mm Hg 67%
08:00 +15°C° 0 mm 2 m/s 635 mm Hg 60%
09:00 +17°C° 0 mm 3 m/s 636 mm Hg 52%
10:00 +19°C° 0 mm 3 m/s 636 mm Hg 47%
11:00 +20°C° 0 mm 4 m/s 636 mm Hg 43%
12:00 +22°C° 0 mm 4 m/s 637 mm Hg 38%
13:00 +22°C° 0.1 mm 4 m/s 637 mm Hg 37%
14:00 +22°C° 0.1 mm 4 m/s 636 mm Hg 36%
15:00 +23°C° 0.1 mm 4 m/s 636 mm Hg 35%
16:00 +21°C° 0.3 mm 4 m/s 636 mm Hg 42%
17:00 +19°C° 0.3 mm 3 m/s 635 mm Hg 50%
18:00 +17°C° 0.3 mm 2 m/s 635 mm Hg 57%
19:00 +16°C° 0.9 mm 2 m/s 635 mm Hg 64%
20:00 +15°C° 0.9 mm 2 m/s 635 mm Hg 71%
21:00 +14°C° 0.9 mm 2 m/s 635 mm Hg 78%
22:00 +14°C° 0.1 mm 2 m/s 636 mm Hg 76%
23:00 +14°C° 0.1 mm 2 m/s 636 mm Hg 75%

3 Ottobre, Sabato

Tempo Temperatura Precipitazioni Vento Pressione Umidità
00:00 +13°C° 0.1 mm 1 m/s 636 mm Hg 73%
01:00 +13°C° 0 mm 1 m/s 636 mm Hg 72%
02:00 +13°C° 0 mm 1 m/s 636 mm Hg 71%
03:00 +12°C° 0 mm 1 m/s 636 mm Hg 71%
04:00 +12°C° 0 mm 1 m/s 636 mm Hg 70%
05:00 +12°C° 0 mm 1 m/s 636 mm Hg 70%
06:00 +12°C° 0 mm 1 m/s 636 mm Hg 70%
07:00 +14°C° 0 mm 1 m/s 637 mm Hg 63%
08:00 +16°C° 0 mm 1 m/s 637 mm Hg 56%
09:00 +17°C° 0 mm 0 m/s 638 mm Hg 50%
10:00 +20°C° 0 mm 1 m/s 638 mm Hg 46%
11:00 +21°C° 0 mm 1 m/s 638 mm Hg 42%
12:00 +22°C° 0 mm 1 m/s 638 mm Hg 38%
13:00 +23°C° 0.1 mm 1 m/s 638 mm Hg 36%
14:00 +23°C° 0.1 mm 1 m/s 638 mm Hg 34%
15:00 +23°C° 0.1 mm 1 m/s 638 mm Hg 32%
16:00 +22°C° 0 mm 1 m/s 637 mm Hg 39%
17:00 +19°C° 0 mm 2 m/s 637 mm Hg 47%
18:00 +17°C° 0 mm 2 m/s 636 mm Hg 55%
19:00 +16°C° 0 mm 2 m/s 637 mm Hg 59%
20:00 +16°C° 0 mm 2 m/s 637 mm Hg 63%
21:00 +15°C° 0 mm 2 m/s 637 mm Hg 67%
22:00 +14°C° 0 mm 2 m/s 637 mm Hg 70%
23:00 +13°C° 0 mm 3 m/s 637 mm Hg 74%

4 Ottobre, Domenica

Tempo Temperatura Precipitazioni Vento Pressione Umidità
00:00 +12°C° 0 mm 3 m/s 637 mm Hg 77%
01:00 +13°C° 0 mm 2 m/s 637 mm Hg 78%
02:00 +12°C° 0 mm 2 m/s 636 mm Hg 80%
03:00 +12°C° 0 mm 2 m/s 636 mm Hg 81%
04:00 +10°C° 0 mm 2 m/s 636 mm Hg 82%
05:00 +10°C° 0 mm 2 m/s 636 mm Hg 82%
06:00 +10°C° 0 mm 2 m/s 636 mm Hg 83%
07:00 +13°C° 0 mm 2 m/s 637 mm Hg 76%
08:00 +14°C° 0 mm 2 m/s 637 mm Hg 68%
09:00 +16°C° 0 mm 2 m/s 638 mm Hg 61%
10:00 +17°C° 0 mm 2 m/s 638 mm Hg 56%
11:00 +19°C° 0 mm 2 m/s 638 mm Hg 50%
12:00 +21°C° 0 mm 1 m/s 638 mm Hg 45%
13:00 +22°C° 0.1 mm 1 m/s 638 mm Hg 44%
14:00 +21°C° 0.1 mm 2 m/s 638 mm Hg 43%
15:00 +21°C° 0.1 mm 2 m/s 638 mm Hg 42%
16:00 +20°C° 0.1 mm 2 m/s 637 mm Hg 51%
17:00 +18°C° 0.1 mm 2 m/s 637 mm Hg 60%
18:00 +16°C° 0.1 mm 3 m/s 636 mm Hg 69%
19:00 +14°C° 0 mm 3 m/s 636 mm Hg 72%
20:00 +14°C° 0 mm 2 m/s 637 mm Hg 76%
21:00 +13°C° 0 mm 2 m/s 637 mm Hg 80%
22:00 +13°C° 0 mm 2 m/s 636 mm Hg 80%
23:00 +13°C° 0 mm 2 m/s 636 mm Hg 81%
Mostrare altro